When you browse on this site, cookies collect data to enhance your experience and personalize the content and advertising you see.
Visit our Privacy Policy to learn more. By continuing to use the site, you agree to this use of cookies and data.
  • In Austria
  • List of Countries
  • For 7 days
  • Water Temperature
  • Satellite Maps
  • Weather Map
  • News
  • Weather Widgets
  • user-avatar
    Login

    Hourly Weather Buykovichi

    Today, 21 July, Sunday

    Time Temperature Precipitation Wind Pressure Humidity
    00:00 +16°C° 0 mm 0 mps 752 mmHg 89%
    01:00 +15°C° 0 mm 0 mps 752 mmHg 90%
    02:00 +15°C° 0 mm 0 mps 752 mmHg 91%
    03:00 +15°C° 0 mm 0 mps 752 mmHg 91%
    04:00 +15°C° 0 mm 0 mps 752 mmHg 91%
    05:00 +15°C° 0 mm 0 mps 752 mmHg 91%
    06:00 +19°C° 0 mm 1 mps 752 mmHg 84%
    07:00 +21°C° 0 mm 1 mps 752 mmHg 77%
    08:00 +23°C° 0 mm 1 mps 752 mmHg 71%
    09:00 +25°C° 0 mm 1 mps 752 mmHg 64%
    10:00 +26°C° 0 mm 1 mps 752 mmHg 57%
    11:00 +28°C° 0 mm 1 mps 752 mmHg 51%
    12:00 +29°C° 0 mm 1 mps 752 mmHg 48%
    13:00 +29°C° 0 mm 1 mps 751 mmHg 45%
    14:00 +30°C° 0 mm 1 mps 751 mmHg 42%
    15:00 +30°C° 0 mm 1 mps 751 mmHg 44%
    16:00 +29°C° 0 mm 1 mps 751 mmHg 45%
    17:00 +29°C° 0 mm 1 mps 751 mmHg 47%
    18:00 +27°C° 0 mm 1 mps 750 mmHg 55%
    19:00 +25°C° 0 mm 1 mps 750 mmHg 63%
    20:00 +23°C° 0 mm 1 mps 750 mmHg 71%
    21:00 +22°C° 0.1 mm 1 mps 750 mmHg 76%
    22:00 +21°C° 0.1 mm 1 mps 750 mmHg 81%
    23:00 +20°C° 0.1 mm 1 mps 750 mmHg 85%

    Tomorrow, 22 July, Monday

    Time Temperature Precipitation Wind Pressure Humidity
    00:00 +20°C° 0.2 mm 1 mps 750 mmHg 88%
    01:00 +20°C° 0.2 mm 1 mps 750 mmHg 90%
    02:00 +20°C° 0.2 mm 1 mps 750 mmHg 92%
    03:00 +20°C° 1.4 mm 1 mps 749 mmHg 93%
    04:00 +20°C° 1.4 mm 1 mps 749 mmHg 95%
    05:00 +17°C° 1.4 mm 0 mps 749 mmHg 96%
    06:00 +20°C° 0.5 mm 1 mps 749 mmHg 96%
    07:00 +20°C° 0.5 mm 1 mps 749 mmHg 96%
    08:00 +20°C° 0.5 mm 2 mps 749 mmHg 96%
    09:00 +20°C° 0.2 mm 3 mps 750 mmHg 93%
    10:00 +20°C° 0.2 mm 3 mps 750 mmHg 91%
    11:00 +20°C° 0.2 mm 4 mps 750 mmHg 89%
    12:00 +21°C° 0.1 mm 4 mps 750 mmHg 85%
    13:00 +21°C° 0.1 mm 5 mps 750 mmHg 80%
    14:00 +22°C° 0.1 mm 5 mps 750 mmHg 76%
    15:00 +22°C° 0 mm 5 mps 750 mmHg 73%
    16:00 +22°C° 0 mm 5 mps 750 mmHg 70%
    17:00 +23°C° 0 mm 5 mps 750 mmHg 67%
    18:00 +22°C° 0 mm 4 mps 749 mmHg 73%
    19:00 +20°C° 0 mm 4 mps 749 mmHg 79%
    20:00 +19°C° 0 mm 3 mps 749 mmHg 85%
    21:00 +18°C° 0 mm 3 mps 750 mmHg 87%
    22:00 +18°C° 0 mm 3 mps 750 mmHg 89%
    23:00 +17°C° 0 mm 3 mps 750 mmHg 92%

    Day after tomorrow, 23 July, Tuesday

    Time Temperature Precipitation Wind Pressure Humidity
    00:00 +17°C° 0 mm 3 mps 750 mmHg 93%
    01:00 +16°C° 0 mm 3 mps 750 mmHg 95%
    02:00 +14°C° 0 mm 3 mps 750 mmHg 96%
    03:00 +14°C° 0 mm 3 mps 750 mmHg 94%
    04:00 +15°C° 0 mm 4 mps 750 mmHg 92%
    05:00 +15°C° 0 mm 4 mps 750 mmHg 90%
    06:00 +15°C° 0 mm 4 mps 750 mmHg 89%
    07:00 +15°C° 0 mm 4 mps 749 mmHg 87%
    08:00 +17°C° 0 mm 4 mps 749 mmHg 85%
    09:00 +18°C° 0.1 mm 4 mps 749 mmHg 82%
    10:00 +19°C° 0.1 mm 4 mps 750 mmHg 78%
    11:00 +20°C° 0.1 mm 4 mps 750 mmHg 75%
    12:00 +20°C° 0.2 mm 4 mps 749 mmHg 77%
    13:00 +19°C° 0.2 mm 4 mps 749 mmHg 80%
    14:00 +19°C° 0.2 mm 4 mps 749 mmHg 83%
    15:00 +19°C° 0.2 mm 4 mps 749 mmHg 82%
    16:00 +20°C° 0.2 mm 4 mps 748 mmHg 81%
    17:00 +20°C° 0.2 mm 4 mps 748 mmHg 80%
    18:00 +19°C° 0 mm 3 mps 748 mmHg 84%
    19:00 +18°C° 0 mm 3 mps 748 mmHg 89%
    20:00 +18°C° 0 mm 2 mps 748 mmHg 93%
    21:00 +17°C° 0 mm 2 mps 748 mmHg 95%
    22:00 +17°C° 0 mm 2 mps 748 mmHg 96%
    23:00 +16°C° 0 mm 2 mps 748 mmHg 97%

    24 July, Wednesday

    Time Temperature Precipitation Wind Pressure Humidity
    00:00 +16°C° 0 mm 2 mps 749 mmHg 97%
    01:00 +16°C° 0 mm 2 mps 749 mmHg 98%
    02:00 +16°C° 0 mm 2 mps 749 mmHg 98%
    03:00 +15°C° 0 mm 2 mps 749 mmHg 98%
    04:00 +15°C° 0 mm 2 mps 749 mmHg 98%
    05:00 +15°C° 0 mm 2 mps 749 mmHg 98%
    06:00 +16°C° 0 mm 3 mps 749 mmHg 92%
    07:00 +18°C° 0 mm 3 mps 750 mmHg 86%
    08:00 +19°C° 0 mm 3 mps 750 mmHg 80%
    09:00 +21°C° 0 mm 4 mps 750 mmHg 73%
    10:00 +22°C° 0 mm 4 mps 750 mmHg 66%
    11:00 +25°C° 0 mm 4 mps 751 mmHg 59%
    12:00 +26°C° 0 mm 4 mps 750 mmHg 57%
    13:00 +27°C° 0 mm 4 mps 750 mmHg 55%
    14:00 +27°C° 0 mm 4 mps 750 mmHg 53%
    15:00 +27°C° 0 mm 4 mps 750 mmHg 55%
    16:00 +27°C° 0 mm 4 mps 750 mmHg 57%
    17:00 +26°C° 0 mm 4 mps 750 mmHg 59%
    18:00 +25°C° 0 mm 4 mps 751 mmHg 66%
    19:00 +22°C° 0 mm 3 mps 751 mmHg 73%
    20:00 +20°C° 0 mm 3 mps 751 mmHg 81%
    21:00 +19°C° 0 mm 2 mps 751 mmHg 84%
    22:00 +18°C° 0 mm 2 mps 751 mmHg 87%
    23:00 +17°C° 0 mm 2 mps 751 mmHg 90%

    25 July, Thursday

    Time Temperature Precipitation Wind Pressure Humidity
    00:00 +17°C° 0 mm 2 mps 752 mmHg 90%
    01:00 +16°C° 0 mm 2 mps 752 mmHg 91%
    02:00 +16°C° 0 mm 2 mps 752 mmHg 91%
    03:00 +16°C° 0 mm 2 mps 752 mmHg 91%
    04:00 +16°C° 0 mm 2 mps 752 mmHg 91%
    05:00 +15°C° 0 mm 2 mps 752 mmHg 91%
    06:00 +17°C° 0 mm 2 mps 752 mmHg 84%
    07:00 +19°C° 0 mm 3 mps 752 mmHg 76%
    08:00 +21°C° 0 mm 3 mps 752 mmHg 69%
    09:00 +24°C° 0 mm 3 mps 752 mmHg 62%
    10:00 +25°C° 0 mm 4 mps 752 mmHg 55%
    11:00 +27°C° 0 mm 4 mps 752 mmHg 48%
    12:00 +27°C° 0 mm 4 mps 752 mmHg 47%
    13:00 +28°C° 0 mm 4 mps 752 mmHg 46%
    14:00 +28°C° 0 mm 4 mps 752 mmHg 45%
    15:00 +28°C° 0 mm 4 mps 751 mmHg 48%
    16:00 +27°C° 0 mm 4 mps 751 mmHg 50%
    17:00 +27°C° 0 mm 4 mps 751 mmHg 53%
    18:00 +25°C° 0 mm 3 mps 751 mmHg 61%
    19:00 +22°C° 0 mm 3 mps 751 mmHg 69%
    20:00 +21°C° 0 mm 2 mps 752 mmHg 77%
    21:00 +20°C° 0 mm 2 mps 752 mmHg 79%
    22:00 +19°C° 0 mm 2 mps 752 mmHg 81%
    23:00 +18°C° 0 mm 2 mps 752 mmHg 83%

    26 July, Friday

    Time Temperature Precipitation Wind Pressure Humidity
    00:00 +18°C° 0 mm 2 mps 752 mmHg 85%
    01:00 +17°C° 0 mm 2 mps 752 mmHg 87%
    02:00 +17°C° 0 mm 2 mps 752 mmHg 89%
    03:00 +17°C° 0 mm 2 mps 752 mmHg 91%
    04:00 +16°C° 0 mm 2 mps 752 mmHg 92%
    05:00 +16°C° 0 mm 2 mps 752 mmHg 94%
    06:00 +18°C° 0 mm 2 mps 752 mmHg 88%
    07:00 +20°C° 0 mm 2 mps 752 mmHg 81%
    08:00 +23°C° 0 mm 2 mps 752 mmHg 75%
    09:00 +25°C° 0 mm 2 mps 752 mmHg 69%
    10:00 +26°C° 0 mm 2 mps 752 mmHg 64%
    11:00 +28°C° 0 mm 3 mps 752 mmHg 59%
    12:00 +27°C° 0.4 mm 2 mps 751 mmHg 62%
    13:00 +27°C° 0.4 mm 2 mps 751 mmHg 65%
    14:00 +27°C° 0.4 mm 2 mps 751 mmHg 68%
    15:00 +27°C° 0.5 mm 3 mps 750 mmHg 69%
    16:00 +27°C° 0.5 mm 3 mps 750 mmHg 70%
    17:00 +26°C° 0.5 mm 3 mps 750 mmHg 71%
    18:00 +25°C° 0 mm 3 mps 750 mmHg 73%
    19:00 +22°C° 0 mm 3 mps 750 mmHg 76%
    20:00 +20°C° 0 mm 3 mps 750 mmHg 78%
    21:00 +19°C° 0 mm 3 mps 750 mmHg 80%
    22:00 +18°C° 0 mm 2 mps 751 mmHg 82%
    23:00 +17°C° 0 mm 2 mps 751 mmHg 83%
    Show more